GW3840 Weather Reports


time (UTC)temp
F
wind
direction
speed
knots
gust
knots
rain 1hr
in
rain 24hr
in
rain mn
in
humidity
%
barometer
mb
20260507151332 48 258 4.3 5.2 0.00 0.00 0.00 44 1013.2
20260507150830 48 258 4.3 6.1 0.00 0.00 0.00 44 1013.2
20260507150321 49 194 1.7 5.2 0.00 0.00 0.00 46 1013.1
20260507145817 48 222 2.6 6.1 0.00 0.00 0.00 45 1013.4
20260507145313 47 280 4.3 6.1 0.00 0.00 0.00 45 1013.4
20260507144811 47 167 2.6 3.5 0.00 0.00 0.00 47 1013.4
20260507144308 48 237 2.6 5.2 0.00 0.00 0.00 47 1013.4
20260507143804 47 219 2.6 3.5 0.00 0.00 0.00 48 1013.3
20260507143302 46 168 1.7 7.0 0.00 0.00 0.00 50 1013.4
20260507142757 46 235 5.2 7.0 0.00 0.00 0.00 50 1013.5
20260507142254 46 215 3.5 5.2 0.00 0.00 0.00 51 1013.4
20260507141751 45 222 3.5 5.2 0.00 0.00 0.00 51 1013.5
20260507141248 44 156 0.9 7.0 0.00 0.00 0.00 53 1013.4
20260507140744 44 200 2.6 2.6 0.00 0.00 0.00 51 1013.3
20260507140242 44 217 1.7 2.6 0.00 0.00 0.00 53 1013.3
20260507135738 43 214 3.5 5.2 0.00 0.00 0.00 54 1013.4
20260507135236 43 230 1.7 5.2 0.00 0.00 0.00 60 1013.3
20260507134732 43 161 1.7 3.5 0.00 0.00 0.00 60 1013.1
20260507134228 43 204 1.7 3.5 0.00 0.00 0.00 58 1013.3
20260507133724 42 232 0.9 1.7 0.00 0.00 0.00 63 1013.3
20260507133221 42 241 3.5 6.1 0.00 0.00 0.00 62 1013.3
20260507132719 42 235 1.7 5.2 0.00 0.00 0.00 62 1013.4
20260507132215 41 166 0.9 2.6 0.00 0.00 0.00 64 1013.4
20260507131712 41 144 1.7 2.6 0.00 0.00 0.00 66 1013.5
20260507131210 41 239 0.9 5.2 0.00 0.00 0.00 68 1013.3
20260507130706 40 218 2.6 3.5 0.00 0.00 0.00 67 1013.5
20260507130204 40 177 1.7 1.7 0.00 0.00 0.00 68 1013.7
20260507125702 40 177 1.7 1.7 0.00 0.00 0.00 68 1013.5
20260507125200 39 212 0.9 2.6 0.00 0.00 0.00 69 1013.6
20260507124656 39 236 0.9 2.6 0.00 0.00 0.00 70 1013.4
20260507124153 39 208 0.9 1.7 0.00 0.00 0.00 70 1013.3
20260507123652 38 183 0.0 0.9 0.00 0.00 0.00 71 1013.3
20260507123148 38 222 0.9 1.7 0.00 0.00 0.00 72 1013.3
20260507122643 38 205 0.0 0.9 0.00 0.00 0.00 73 1013.4
20260507122139 37 215 0.9 1.7 0.00 0.00 0.00 73 1013.4
20260507121635 37 235 0.9 1.7 0.00 0.00 0.00 73 1013.3
20260507121132 37 182 0.0 2.6 0.00 0.00 0.00 74 1013.4
20260507120628 36 167 1.7 1.7 0.00 0.00 0.00 74 1013.4
20260507120125 36 179 0.9 2.6 0.00 0.00 0.00 75 1013.3
20260507115621 35 206 0.0 2.6 0.00 0.00 0.00 75 1013.2
20260507115117 35 180 0.0 0.9 0.00 0.00 0.00 76 1013.3
20260507114613 34 221 1.7 2.6 0.00 0.00 0.00 78 1013.3
20260507114110 33 201 1.7 2.6 0.00 0.00 0.00 79 1013.3
20260507113608 33 190 0.0 0.9 0.00 0.00 0.00 81 1013.1
20260507113105 32 199 0.0 0.9 0.00 0.00 0.00 83 1013.1
20260507112603 32 196 0.0 0.9 0.00 0.00 0.00 83 1013.4
20260507112059 31 172 0.0 0.9 0.00 0.00 0.00 87 1013.2
20260507111555 31 172 0.0 0.9 0.00 0.00 0.00 87 1013.4
20260507111052 28 195 0.0 0.0 0.00 0.00 0.00 91 1013.3
20260507110548 28 195 0.0 0.0 0.00 0.00 0.00 91 1013.3
20260507110045 28 195 0.0 0.0 0.00 0.00 0.00 91 1013.2
20260507105542 28 195 0.0 0.0 0.00 0.00 0.00 91 1013.4
20260507105038 28 195 0.0 0.0 0.00 0.00 0.00 91 1013.4
20260507104536 29 201 0.0 0.0 0.00 0.00 0.00 90 1013.4
20260507104032 29 201 0.0 0.0 0.00 0.00 0.00 90 1013.6
20260507103528 29 190 0.0 0.0 0.00 0.00 0.00 88 1013.5
20260507103025 30 201 0.0 0.0 0.00 0.00 0.00 86 1013.5
20260507102522 31 208 0.0 0.0 0.00 0.00 0.00 84 1013.5
20260507102018 31 208 0.0 0.0 0.00 0.00 0.00 84 1013.5
20260507101513 31 196 0.0 0.0 0.00 0.00 0.00 83 1013.6
20260507101010 32 184 0.0 0.0 0.00 0.00 0.00 82 1013.6
20260507100507 32 184 0.0 0.0 0.00 0.00 0.00 82 1013.4
20260507100006 32 173 0.9 0.9 0.00 0.00 0.00 83 1013.5
20260507095503 30 194 0.0 0.0 0.00 0.00 0.00 87 1013.4
20260507094959 30 194 0.0 0.0 0.00 0.00 0.00 87 1013.5
20260507094455 30 194 0.0 0.0 0.00 0.00 0.00 87 1013.3
20260507093953 30 194 0.0 0.0 0.00 0.00 0.00 87 1013.5
20260507093450 30 194 0.0 0.0 0.00 0.00 0.00 87 1013.5
20260507092949 30 194 0.0 0.0 0.00 0.00 0.00 87 1013.6
20260507092445 30 194 0.0 0.0 0.00 0.00 0.00 87 1013.6
20260507091941 30 194 0.0 0.0 0.00 0.00 0.00 87 1013.7
20260507091438 30 194 0.0 0.0 0.00 0.00 0.00 87 1013.7
20260507090934 30 194 0.0 0.0 0.00 0.00 0.00 87 1013.6
20260507090430 30 190 0.0 0.0 0.00 0.00 0.00 84 1013.6
20260507085926 30 182 0.0 0.0 0.00 0.00 0.00 83 1013.5
20260507085424 30 192 0.0 0.0 0.00 0.00 0.00 81 1013.6
20260507084915 31 192 0.0 0.9 0.00 0.00 0.00 81 1013.7
20260507084412 31 197 0.0 0.0 0.00 0.00 0.00 78 1013.8
20260507083909 32 170 0.0 0.9 0.00 0.00 0.00 76 1013.7
20260507083405 33 208 0.9 0.9 0.00 0.00 0.00 75 1013.7
20260507082902 33 195 0.0 0.0 0.00 0.00 0.00 73 1013.8
20260507082357 33 181 0.9 0.9 0.00 0.00 0.00 74 1013.7
20260507081855 33 181 0.9 0.9 0.00 0.00 0.00 74 1013.6
20260507081351 32 230 0.0 0.9 0.00 0.00 0.00 77 1013.7
20260507080848 31 193 0.0 0.9 0.00 0.00 0.00 79 1013.6
20260507080344 30 199 0.0 0.0 0.00 0.00 0.00 81 1013.5
20260507075839 31 191 0.0 0.0 0.00 0.00 0.00 81 1013.6
20260507075336 31 185 0.0 0.0 0.00 0.00 0.00 81 1013.7
20260507074832 31 192 0.9 1.7 0.00 0.00 0.00 82 1013.4
20260507074330 31 187 0.0 0.0 0.00 0.00 0.00 80 1013.8
20260507073827 31 194 0.0 0.0 0.00 0.00 0.00 80 1013.7
20260507073323 32 173 0.0 0.0 0.00 0.00 0.00 80 1013.8
20260507072821 32 199 0.0 0.0 0.00 0.00 0.00 80 1013.7
20260507072318 0 0.0 0.0 0.00 0.00 0.00 1013.8
20260507071815 0 0.0 0.0 0.00 0.00 0.00 1013.8
20260507071312 0 0.0 0.0 0.00 0.00 0.00 1013.9
20260507070809 0 0.0 0.0 0.00 0.00 0.00 1014.0
20260507070306 0 0.0 0.0 0.00 0.00 0.00 1014.0
20260507065802 0 0.0 0.0 0.00 0.00 0.00 1014.0
20260507065259 0 0.0 0.0 0.00 0.00 0.00 1013.9
20260507064756 0 0.0 0.0 0.00 0.00 0.00 1014.3
20260507064255 0 0.0 0.0 0.00 0.00 0.00 1014.1
20260507063753 0 0.0 0.0 0.00 0.00 0.00 1014.2
20260507063249 0 0.0 0.0 0.00 0.00 0.00 1014.2
20260507062746 29 188 0.0 0.0 0.00 0.00 0.00 88 1014.2
20260507062243 29 188 0.0 0.0 0.00 0.00 0.00 88 1014.3
20260507061741 29 188 0.0 0.0 0.00 0.00 0.00 88 1014.4
20260507061239 29 188 0.0 0.0 0.00 0.00 0.00 88 1014.3
20260507060737 29 188 0.0 0.0 0.00 0.00 0.00 88 1014.5
20260507060233 29 188 0.0 0.0 0.00 0.00 0.00 88 1014.5
20260507055729 29 188 0.0 0.0 0.00 0.00 0.00 88 1014.5
20260507055225 29 188 0.0 0.0 0.00 0.00 0.00 88 1014.5
20260507054721 29 188 0.0 0.0 0.00 0.00 0.00 88 1014.5
20260507054218 29 188 0.0 0.0 0.00 0.00 0.00 88 1014.5
20260507053716 29 188 0.0 0.0 0.00 0.00 0.00 88 1014.7
20260507053213 29 188 0.0 0.0 0.00 0.00 0.00 88 1014.7
20260507052712 30 187 0.0 0.0 0.00 0.00 0.00 86 1015.0
20260507052208 30 187 0.0 0.0 0.00 0.00 0.00 86 1015.0
20260507051706 30 187 0.0 0.0 0.00 0.00 0.00 86 1015.0
20260507051203 30 187 0.0 0.0 0.00 0.00 0.00 86 1015.1
20260507050659 32 202 0.0 0.0 0.00 0.00 0.00 82 1015.1
20260507050156 32 202 0.0 0.0 0.00 0.00 0.00 82 1015.3
20260507045653 32 202 0.0 0.0 0.00 0.00 0.00 82 1015.2
20260507045149 32 202 0.0 0.0 0.00 0.00 0.00 82 1015.3
20260507044646 32 202 0.0 0.0 0.00 0.00 0.00 82 1015.3
20260507044143 32 202 0.0 0.0 0.00 0.00 0.00 82 1015.4
20260507043639 33 202 0.0 0.0 0.00 0.00 0.00 78 1015.4
20260507043136 33 202 0.0 0.0 0.00 0.00 0.00 78 1015.3
20260507042632 33 202 0.0 0.0 0.00 0.00 0.00 78 1015.4
20260507042127 33 202 0.0 0.0 0.00 0.00 0.00 78 1015.4
20260507041625 0 0.0 0.0 0.00 0.00 0.00 1015.4
20260507041121 0 0.0 0.0 0.00 0.00 0.00 1015.4
20260507040619 0 0.0 0.0 0.00 0.00 0.00 1015.6
20260507040115 0 0.0 0.0 0.00 0.00 0.00 1015.6
20260507035611 0 0.0 0.0 0.00 0.00 0.00 1015.5
20260507035108 0 0.0 0.0 0.00 0.00 0.00 1015.4
20260507034604 0 0.0 0.0 0.00 0.00 0.00 1015.6
20260507034102 0 0.0 0.0 0.00 0.00 0.00 1015.7
20260507033600 0 0.0 0.0 0.00 0.00 0.00 1015.6
20260507033057 0 0.0 0.0 0.00 0.00 0.00 1015.5
20260507032554 0 0.0 0.0 0.00 0.00 0.00 1015.8
20260507032050 0 0.0 0.0 0.00 0.00 0.00 1015.7
20260507031546 0 0.0 0.0 0.00 0.00 0.00 1015.8
20260507031044 0 0.0 0.0 0.00 0.00 0.00 1015.9
20260507030540 0 0.0 0.0 0.00 0.00 0.00 1015.8
20260507030038 0 0.0 0.0 0.00 0.00 0.00 1015.8
20260507025535 0 0.0 0.0 0.00 0.00 0.00 1016.0
20260507025032 0 0.0 0.0 0.00 0.00 0.00 1015.8
20260507024530 0 0.0 0.0 0.00 0.00 0.00 1015.8
20260507024026 0 0.0 0.0 0.00 0.00 0.00 1016.1
20260507023522 0 0.0 0.0 0.00 0.00 0.00 1016.2
20260507023020 0 0.0 0.0 0.00 0.00 0.00 1015.9
20260507022517 40 304 0.9 0.9 0.00 0.00 0.00 56 1015.8
20260507022012 40 304 0.9 0.9 0.00 0.00 0.00 56 1016.0
20260507021508 40 304 0.9 0.9 0.00 0.00 0.00 56 1015.9
20260507020959 40 304 0.9 0.9 0.00 0.00 0.00 56 1015.9
20260507020456 40 304 0.9 0.9 0.00 0.00 0.00 56 1015.9
20260507015953 40 304 0.9 0.9 0.00 0.00 0.00 56 1015.9
20260507015452 40 304 0.9 0.9 0.00 0.00 0.00 56 1015.9
20260507014948 40 304 0.9 0.9 0.00 0.00 0.00 56 1015.6
20260507014445 40 304 0.9 0.9 0.00 0.00 0.00 56 1015.7
20260507013941 40 304 0.9 0.9 0.00 0.00 0.00 56 1015.8
20260507013438 40 304 0.9 0.9 0.00 0.00 0.00 56 1015.7
20260507012935 40 304 0.9 0.9 0.00 0.00 0.00 56 1015.7
20260507012432 41 321 1.7 1.7 0.00 0.00 0.00 56 1015.5
20260507011928 41 321 1.7 1.7 0.00 0.00 0.00 56 1015.7
20260507011425 41 330 1.7 2.6 0.00 0.00 0.00 56 1015.7
20260507010920 41 313 1.7 2.6 0.00 0.00 0.00 55 1015.7
20260507010415 41 257 0.0 0.0 0.00 0.00 0.00 56 1015.5
20260507005913 41 267 0.0 0.9 0.00 0.00 0.00 55 1015.4
20260507005409 41 291 2.6 2.6 0.00 0.00 0.00 55 1015.8
20260507004906 41 282 0.9 0.9 0.00 0.00 0.00 56 1015.7
20260507004403 41 282 0.9 0.9 0.00 0.00 0.00 56 1015.7
20260507003900 41 294 1.7 3.5 0.00 0.00 0.00 53 1015.6
20260507003355 41 297 3.5 3.5 0.00 0.00 0.00 54 1015.7
20260507002851 41 297 3.5 3.5 0.00 0.00 0.00 54 1015.6
20260507002347 41 308 3.5 5.2 0.00 0.00 0.00 53 1015.7
20260507001844 41 270 2.6 2.6 0.00 0.00 0.00 54 1015.5
20260507001341 41 270 2.6 2.6 0.00 0.00 0.00 54 1015.7
20260507000838 41 270 2.6 2.6 0.00 0.00 0.00 54 1016.0
20260507000335 41 270 2.6 2.6 0.00 0.00 0.00 54 1016.0
20260506235830 41 270 2.6 2.6 0.00 0.00 0.00 54 1016.0
20260506235327 41 270 2.6 3.5 0.00 0.00 0.00 54 1016.0
20260506234823 0 0.0 0.0 0.00 0.00 0.00 1016.0
20260506234321 0 0.0 0.0 0.00 0.00 0.00 1016.2
20260506233818 0 0.0 0.0 0.00 0.00 0.00 1016.3
20260506233313 0 0.0 0.0 0.00 0.00 0.00 1016.2
20260506232810 0 0.0 0.0 0.00 0.00 0.00 1016.3
20260506232306 0 0.0 0.0 0.00 0.00 0.00 1016.1
20260506231802 0 0.0 0.0 0.00 0.00 0.00 1016.3
20260506231300 42 308 3.5 3.5 0.00 0.00 0.00 53 1016.3
20260506230757 42 308 3.5 3.5 0.00 0.00 0.00 53 1016.4
20260506230249 42 308 3.5 3.5 0.00 0.00 0.00 53 1016.3
20260506225746 42 308 3.5 3.5 0.00 0.00 0.00 53 1016.3
20260506225243 42 308 3.5 3.5 0.00 0.00 0.00 53 1016.3
20260506224739 42 308 3.5 3.5 0.00 0.00 0.00 53 1016.3
20260506224237 42 308 3.5 3.5 0.00 0.00 0.00 53 1016.4
20260506223732 42 308 3.5 3.5 0.00 0.00 0.00 53 1016.3
20260506223228 42 308 3.5 3.5 0.00 0.00 0.00 53 1016.5
20260506222725 42 308 3.5 3.5 0.00 0.00 0.00 53 1016.5
20260506222220 42 308 3.5 3.5 0.00 0.00 0.00 53 1016.5
20260506221718 42 308 3.5 3.5 0.00 0.00 0.00 53 1016.6
20260506221216 42 293 3.5 6.1 0.00 0.00 0.00 55 1016.6
20260506220708 42 258 2.6 5.2 0.00 0.00 0.00 54 1016.6
20260506220202 41 298 4.3 6.1 0.00 0.00 0.00 52 1016.5
20260506215659 42 298 4.3 5.2 0.00 0.00 0.00 54 1016.7
20260506215155 41 288 2.6 3.5 0.00 0.00 0.00 53 1016.7
20260506214652 41 247 3.5 5.2 0.00 0.00 0.00 52 1016.8
20260506214149 41 267 4.3 5.2 0.00 0.00 0.00 53 1016.7
20260506213648 41 267 4.3 5.2 0.00 0.00 0.00 53 1016.9
20260506213144 41 265 3.5 6.1 0.00 0.00 0.00 55 1016.9
20260506212642 41 280 2.6 6.1 0.00 0.00 0.00 55 1016.8
20260506212136 41 318 2.6 6.1 0.00 0.00 0.00 55 1016.8
20260506211632 41 273 7.0 8.7 0.00 0.00 0.00 53 1017.0
20260506211129 41 254 4.3 7.0 0.00 0.00 0.00 54 1017.0
20260506210627 41 297 3.5 3.5 0.00 0.00 0.00 55 1017.1
20260506210123 41 305 5.2 6.1 0.00 0.00 0.00 54 1017.4
20260506205620 41 289 6.1 9.6 0.00 0.00 0.00 54 1017.4
20260506205114 41 267 4.3 9.6 0.00 0.00 0.00 54 1017.4
20260506204613 41 311 3.5 7.0 0.00 0.00 0.00 56 1017.2
20260506204109 41 324 5.2 7.8 0.00 0.00 0.00 55 1017.1
20260506203608 40 290 3.5 7.0 0.00 0.00 0.00 54 1017.5
20260506203104 41 277 7.8 8.7 0.00 0.00 0.00 54 1017.5
20260506202602 41 310 5.2 7.0 0.00 0.00 0.00 54 1017.2
20260506202058 41 259 5.2 6.1 0.00 0.00 0.00 55 1017.4
20260506201555 41 298 5.2 7.8 0.00 0.00 0.00 55 1017.4
20260506201052 41 267 2.6 6.1 0.00 0.00 0.00 57 1017.2
20260506200548 41 277 1.7 3.5 0.00 0.00 0.00 58 1017.2
20260506200045 41 280 6.1 7.8 0.00 0.00 0.00 55 1017.4
20260506195542 41 271 3.5 8.7 0.00 0.00 0.00 54 1017.2
20260506195038 41 267 3.5 8.7 0.00 0.00 0.00 55 1017.5
20260506194536 41 249 3.5 11.3 0.00 0.00 0.00 54 1017.5
20260506194032 41 14 4.3 7.0 0.00 0.00 0.00 55 1017.1
20260506193530 41 258 3.5 7.8 0.00 0.00 0.00 55 1017.5
20260506193027 41 259 4.3 8.7 0.00 0.00 0.00 54 1017.2
20260506192523 41 257 6.1 8.7 0.00 0.00 0.00 54 1017.4
20260506192019 42 283 5.2 7.8 0.00 0.00 0.00 53 1017.2
20260506191516 41 279 5.2 7.0 0.00 0.00 0.00 54 1017.5
20260506191012 42 301 5.2 9.6 0.00 0.00 0.00 53 1017.5
20260506190510 42 264 5.2 8.7 0.00 0.00 0.00 52 1017.0
20260506190007 41 288 5.2 7.0 0.00 0.00 0.00 53 1017.5
20260506185504 42 239 2.6 7.0 0.00 0.00 0.00 53 1017.2
20260506185000 41 254 3.5 6.1 0.00 0.00 0.00 54 1017.1
20260506184457 42 286 7.0 7.8 0.00 0.00 0.00 54 1017.4
20260506183954 41 329 4.3 6.1 0.00 0.00 0.00 54 1017.5
20260506183450 41 288 5.2 7.0 0.00 0.00 0.00 52 1017.5
20260506182947 42 341 5.2 11.3 0.00 0.00 0.00 55 1017.5
20260506182444 42 305 6.1 9.6 0.00 0.00 0.00 53 1017.4
20260506181941 42 334 7.0 8.7 0.00 0.00 0.00 52 1017.2
20260506181439 41 257 5.2 8.7 0.00 0.00 0.00 53 1017.5
20260506180936 42 313 5.2 7.8 0.00 0.00 0.00 52 1017.5
20260506180432 41 264 5.2 6.1 0.00 0.00 0.00 55 1017.6
20260506175929 41 309 2.6 7.8 0.00 0.00 0.00 59 1017.5
20260506175426 41 324 5.2 11.3 0.00 0.00 0.00 54 1017.5
20260506174923 42 282 6.1 9.6 0.00 0.00 0.00 54 1017.7
20260506174421 41 251 7.8 12.2 0.00 0.00 0.00 52 1017.6
20260506173917 41 324 1.7 7.8 0.00 0.00 0.00 53 1017.7
20260506173414 41 315 5.2 8.7 0.00 0.00 0.00 53 1017.8
20260506172911 41 310 4.3 8.7 0.00 0.00 0.00 55 1017.9
20260506172408 41 247 4.3 7.8 0.00 0.00 0.00 54 1018.0
20260506171905 42 303 5.2 6.1 0.00 0.00 0.00 55 1018.0
20260506171402 40 18 5.2 7.8 0.00 0.00 0.00 56 1018.0
20260506170900 40 337 7.8 9.6 0.00 0.00 0.00 53 1018.0
20260506170355 39 357 6.1 7.8 0.00 0.00 0.00 54 1018.0
20260506165849 40 336 6.1 8.7 0.00 0.00 0.00 54 1017.9
20260506165347 39 326 5.2 8.7 0.00 0.00 0.00 56 1017.8
20260506164843 39 293 7.0 7.8 0.00 0.00 0.00 56 1018.2
20260506164339 40 336 3.5 7.8 0.00 0.00 0.00 58 1018.1
20260506163838 40 0 5.2 7.0 0.00 0.00 0.00 57 1018.1
20260506163332 39 63 3.5 8.7 0.00 0.00 0.00 59 1018.2
20260506162827 39 331 6.1 8.7 0.00 0.00 0.00 57 1018.3
20260506162325 38 305 5.2 7.0 0.00 0.00 0.00 59 1018.2
20260506161817 38 261 5.2 6.1 0.00 0.00 0.00 60 1018.3
20260506161314 37 347 5.2 7.8 0.00 0.00 0.00 60 1018.6
20260506160812 37 260 4.3 7.0 0.00 0.00 0.00 62 1018.5
20260506160308 38 231 7.8 8.7 0.00 0.00 0.00 59 1018.4
20260506155807 37 348 1.7 8.7 0.00 0.00 0.00 62 1018.3
20260506155306 37 332 7.8 12.2 0.00 0.00 0.00 60 1018.4
20260506153416 37 321 4.3 7.8 0.00 0.00 0.00 63 1018.4
20260506152913 37 299 4.3 7.8 0.00 0.00 0.00 63 1018.4
20260506152410 36 281 7.0 11.3 0.00 0.00 0.00 63 1018.3
20260506151909 36 325 5.2 7.0 0.00 0.00 0.00 62 1018.4